Location: Sternwarte ZA, Rosenfeld-Brittheim
(48.2889°N, 8.6789°E)
Time: 02:47:02
(UTC+01:00)

ISS - Pass Details

Date: 06 December 2021
Orbit: 413 x 422 km, 51.6° (Epoch: 24 January)

Event Time Altitude Azimuth Distance (km) Brightness Sun altitude
Rises 17:52:07 0° 291° (WNW) 2,386 0.9 -12.8°
Reaches altitude 10° 17:54:17 10° 286° (WNW) 1,516 -0.1 -13.1°
Maximum altitude 17:57:34 48° 211° (SSW) 563 -2.8 -13.6°
Drops below altitude 10° 18:00:50 10° 136° (SE) 1,502 -1.2 -14.2°
Enters shadow 18:01:13 - 135° (SE) 1,656 -1.0 -14.2°
